Location: Devore Heights
(34.2372°N, 117.4156°W)
Time: 03:02:37
(UTC+00:00)

SR - Pass Details

Date: 15 September 2024
Orbit: 578 x 855 km, 66.7° (Epoch: 02 October)

Event Time Altitude Azimuth Distance (km) Brightness Sun altitude
Rises 05:28:33 0° 345° (NNW) 2,965 ? -41.0°
Enters shadow 05:30:05 - 351° (N) 2,411 ? -41.3°
Reaches altitude 10° 05:31:01 10° 356° (N) 2,095 - -41.4°
Maximum altitude 05:35:13 30° 58° (ENE) 1,245 - -42.0°
Drops below altitude 10° 05:39:41 10° 119° (ESE) 2,248 - -42.7°
Sets 05:42:25 0° 130° (SE) 3,219 - -43.1°
